Location: Beaver Brook Trail
(44.0290°N, 71.8137°W)
Time: 03:21:52
(UTC+00:00)

SR - Pass Details

Date: 13 November 2024
Orbit: 573 x 858 km, 66.7° (Epoch: 03 December)

Event Time Altitude Azimuth Distance (km) Brightness Sun altitude
Exits shadow 10:21:05 - 340° (NNW) 2,944 ? -14.4°
Reaches altitude 10° 10:23:37 10° 358° (N) 2,247 ? -13.9°
Maximum altitude 10:27:03 18° 40° (NE) 1,838 ? -13.3°
Drops below altitude 10° 10:30:37 10° 81° (E) 2,363 ? -12.7°
Sets 10:33:57 0° 100° (E) 3,339 ? -12.1°
